Ballina Observation History
Time Wind Speed Temp Pressure Rel. Hum Rain
22/09:00am CALM 0 kts 19.0°c 1016.3 hPa 84% 0.0mm
22/08:30am WSW 2-4 kts 18.2°c 1016.1 hPa 89% 0.0mm
22/08:00am W 2-5 kts 17.3°c 1015.8 hPa 91% 0.0mm
22/07:30am CALM 0 kts 16.8°c 1015.5 hPa 93% 0.0mm
22/07:00am W 3-4 kts 16.1°c 1015.1 hPa 95% 0.0mm
22/06:30am CALM 0 kts 14.8°c 1014.5 hPa 95% 0.0mm
22/06:00am W 3-4 kts 14.6°c 1014.2 hPa 96% 0.0mm
22/05:30am NNW 3-4 kts 14.0°c 1014.1 hPa 95% 0.0mm
22/05:00am CALM 0 kts 13.9°c 1014.0 hPa 94% 0.0mm
22/04:30am CALM 0 kts 14.1°c 1013.9 hPa 94% 0.0mm
22/04:00am CALM 0 kts 14.2°c 1014.1 hPa 94% 0.0mm
22/03:30am NW 3 kts 14.8°c 1014.2 hPa 96% 0.0mm
22/03:00am CALM 0 kts 14.6°c 1014.3 hPa 94% 0.0mm
22/02:30am CALM 0 kts 14.4°c 1015.0 hPa 92% 0.0mm
22/02:00am CALM 0 kts 15.0°c 1015.4 hPa 93% 0.0mm
22/01:30am CALM 0-1 kts 15.2°c 1015.9 hPa 93% 0.0mm
22/01:00am NNW 3 kts 15.8°c 1015.9 hPa 92% 0.0mm
22/12:30am N 1-3 kts 16.2°c 1016.2 hPa 89% 0.0mm
22/12:00am CALM 0 kts 16.8°c 1016.5 hPa 87% 0.0mm
Time Wind Speed Temp Pressure Rel. Hum Rain
21/11:30pm CALM 0 kts 17.0°c 1016.6 hPa 87% 0.0mm
21/11:00pm N 1-3 kts 16.6°c 1016.6 hPa 87% 0.0mm
21/10:30pm NW 4 kts 17.1°c 1016.6 hPa 86% 0.0mm
21/10:00pm N 4-5 kts 17.5°c 1016.3 hPa 82% 0.0mm
21/09:30pm NNW 4-5 kts 18.1°c 1016.4 hPa 82% 0.0mm
21/09:00pm NNW 4-5 kts 18.5°c 1016.2 hPa 79% 0.0mm
21/08:30pm NE 5-7 kts 19.7°c 1015.3 hPa 72% 0.0mm
21/08:00pm NE 7-10 kts 19.7°c 1015.1 hPa 72% 0.0mm
21/07:30pm NE 6-8 kts 19.4°c 1015.1 hPa 71% 0.0mm
21/07:00pm NE 7-9 kts 19.9°c 1015.1 hPa 66% 0.0mm
21/06:30pm ENE 9-12 kts 21.1°c 1015.1 hPa 62% 0.0mm
21/06:00pm ENE 8-11 kts 21.5°c 1015.1 hPa 67% 0.0mm
21/05:30pm ENE 9-11 kts 21.2°c 1015.0 hPa 67% 0.0mm
21/05:00pm ENE 9-13 kts 21.5°c 1014.8 hPa 64% 0.0mm
21/04:30pm E 10-13 kts 21.7°c 1014.5 hPa 61% 0.0mm
21/04:00pm E 9-14 kts 21.6°c 1014.8 hPa 62% 0.0mm
21/03:30pm E 9-14 kts 21.9°c 1015.0 hPa 57% 0.0mm
21/03:00pm ESE 11-15 kts 22.8°c 1015.1 hPa 57% 0.0mm
21/02:30pm ESE 11-15 kts 23.0°c 1015.2 hPa 58% 0.0mm
21/02:00pm ESE 12-16 kts 22.7°c 1015.4 hPa 55% 0.0mm
21/01:30pm ESE 10-15 kts 23.3°c 1015.9 hPa 57% 0.0mm
21/01:00pm SE 11-15 kts 22.9°c 1016.1 hPa 57% 0.0mm
21/12:30pm SSE 10-13 kts 23.3°c 1016.5 hPa 57% 0.0mm
21/12:00pm SE 10-13 kts 22.5°c 1016.9 hPa 57% 0.0mm
21/11:30am SE 10-13 kts 22.4°c 1017.5 hPa 56% 0.0mm
21/11:00am SE 10-13 kts 22.6°c 1017.5 hPa 58% 0.0mm
21/10:30am SSE 9-13 kts 22.2°c 1017.9 hPa 55% 0.0mm
21/10:00am SSE 5-9 kts 21.7°c 1018.1 hPa 54% 0.0mm
21/09:30am SW 7-9 kts 21.4°c 1018.0 hPa 55% 0.0mm
21/09:00am SW 7-10 kts 21.0°c 1017.9 hPa 61% 0.0mm
21/08:30am WSW 7-10 kts 20.0°c 1017.8 hPa 69% 0.0mm
21/08:00am WSW 7-10 kts 18.3°c 1017.6 hPa 75% 0.0mm
21/07:30am S 6-7 kts 17.1°c 1017.6 hPa 79% 0.0mm
21/07:00am CALM 0 kts 14.5°c 1017.4 hPa 92% 0.0mm
21/06:30am S 2-3 kts 12.7°c 1017.2 hPa 93% 0.0mm
21/06:00am CALM 0 kts 12.3°c 1016.8 hPa 93% 0.0mm
21/05:30am CALM 0 kts 12.7°c 1016.5 hPa 92% 0.0mm
21/05:00am S 3-4 kts 13.3°c 1016.4 hPa 92% 0.0mm
21/04:30am S 2-3 kts 13.1°c 1016.3 hPa 92% 0.0mm
21/04:00am CALM 0 kts 12.8°c 1016.1 hPa 92% 0.0mm
21/03:30am CALM 0 kts 13.0°c 1016.0 hPa 90% 0.0mm
21/03:00am S 2-3 kts 13.7°c 1016.2 hPa 88% 0.0mm
21/02:30am S 5-6 kts 13.4°c 1016.4 hPa 89% 0.0mm
21/02:00am S 4-5 kts 13.9°c 1016.6 hPa 88% 0.0mm
21/01:30am S 4-5 kts 14.0°c 1016.9 hPa 89% 0.0mm
21/01:00am S 5-6 kts 14.1°c 1017.0 hPa 89% 0.0mm
21/12:30am S 1-4 kts 14.4°c 1017.3 hPa 88% 0.0mm
21/12:00am S 5-6 kts 14.0°c 1017.6 hPa 86% 0.0mm
Time Wind Speed Temp Pressure Rel. Hum Rain
20/11:30pm S 4-5 kts 14.8°c 1017.8 hPa 88% 0.0mm
20/11:00pm S 4-5 kts 15.0°c 1018.0 hPa 88% 0.0mm
20/10:30pm S 4-5 kts 15.2°c 1018.1 hPa 86% 0.0mm
20/10:00pm SSE 2-4 kts 16.5°c 1018.2 hPa 80% 0.0mm
20/09:30pm SSE 5-6 kts 17.2°c 1018.1 hPa 73% 0.0mm
20/09:00pm SSE 6-7 kts 17.7°c 1018.0 hPa 70% 0.0mm
20/08:30pm SSE 6-9 kts 18.0°c 1017.8 hPa 70% 0.0mm
20/08:00pm SE 8-11 kts 18.7°c 1017.5 hPa 67% 0.0mm
20/07:30pm SSE 9-13 kts 18.9°c 1017.3 hPa 66% 0.0mm
20/07:00pm SSE 8-12 kts 19.2°c 1016.9 hPa 65% 0.0mm
20/06:30pm SSE 10-14 kts 20.1°c 1016.8 hPa 62% 0.0mm
20/06:00pm SSE 11-14 kts 20.8°c 1016.7 hPa 59% 0.0mm
20/05:30pm SSE 12-16 kts 21.5°c 1016.5 hPa 58% 0.0mm
20/05:00pm SSE 12-15 kts 21.9°c 1016.3 hPa 58% 0.0mm
20/04:30pm SSE 12-17 kts 22.5°c 1016.4 hPa 58% 0.0mm
20/04:00pm SE 12-16 kts 21.7°c 1016.6 hPa 57% 0.0mm
20/03:30pm SSE 14-18 kts 22.8°c 1016.6 hPa 52% 0.0mm
20/03:00pm SSE 14-18 kts 22.6°c 1016.7 hPa 53% 0.0mm
20/02:30pm SSE 14-19 kts 22.6°c 1016.7 hPa 56% 0.0mm
20/02:00pm SSE 13-18 kts 22.9°c 1017.0 hPa 54% 0.0mm
20/01:30pm S 13-18 kts 23.0°c 1017.3 hPa 53% 0.0mm
20/01:00pm S 12-18 kts 22.8°c 1017.6 hPa 58% 0.0mm
20/12:30pm SSE 13-18 kts 22.6°c 1017.6 hPa 59% 0.0mm
20/12:00pm SSE 13-18 kts 22.4°c 1017.8 hPa 59% 0.0mm
20/11:30am S 14-21 kts 22.7°c 1017.9 hPa 61% 0.0mm
20/11:00am S 13-19 kts 22.4°c 1018.3 hPa 61% 0.0mm
20/10:30am S 13-17 kts 22.1°c 1018.2 hPa 67% 0.0mm
20/10:00am S 12-18 kts 21.7°c 1018.1 hPa 67% 0.0mm
20/09:30am SSW 12-17 kts 21.1°c 1018.0 hPa 67% 0.0mm
20/09:00am SW 10-15 kts 20.4°c 1017.9 hPa 70% 1.8mm
20/08:30am SW 8-12 kts 19.8°c 1017.6 hPa 75% 1.8mm
20/08:00am WSW 9-11 kts 18.7°c 1017.4 hPa 78% 1.8mm
20/07:30am SW 9-13 kts 18.2°c 1017.0 hPa 80% 1.8mm
20/07:00am WSW 8-11 kts 17.7°c 1016.6 hPa 83% 1.8mm
20/06:30am WSW 6-8 kts 15.8°c 1016.3 hPa 92% 1.8mm
20/06:00am WSW 7-10 kts 16.1°c 1016.0 hPa 86% 1.8mm
20/05:30am SW 8-12 kts 16.8°c 1015.7 hPa 85% 1.8mm
20/05:00am SW 8-11 kts 16.7°c 1015.3 hPa 88% 1.8mm
20/04:30am SW 5-7 kts 16.2°c 1015.4 hPa 93% 1.8mm
20/04:00am WSW 6-7 kts 15.8°c 1015.3 hPa 92% 1.8mm
20/03:30am WSW 7-8 kts 16.4°c 1015.3 hPa 91% 1.8mm
20/03:00am WSW 8-10 kts 17.0°c 1015.4 hPa 90% 1.8mm
20/02:30am WSW 8-10 kts 17.3°c 1015.6 hPa 90% 1.8mm
20/02:00am WSW 8-11 kts 17.4°c 1015.7 hPa 88% 1.8mm
20/01:30am S 11-16 kts 19.1°c 1015.8 hPa 84% 1.8mm
20/01:00am S 11-15 kts 19.4°c 1016.0 hPa 81% 1.4mm
20/12:30am S 10-15 kts 19.4°c 1016.3 hPa 83% 1.4mm
20/12:00am S 9-16 kts 19.4°c 1016.4 hPa 85% 1.4mm